Regional Weather Roundup
Issued by NWS

Home | Current Version | Previous Version | Graphics & Text | Print | Product List | Glossary On
Versions: 1 2 3 4 5 6 7 8 9 10 11 12 13 14 15 16 17 18 19 20 21 22 23 24 25 26 27 28 29 30 31 32 33 34 35 36 37 38 39 40 41 42 43 44 45 46 47 48 49 50
000
ASUS43 KDMX 182207
RWRIA

WEATHER ROUNDUP FOR IOWA
NATIONAL WEATHER SERVICE DES MOINES IA
400 PM CST THU DEC 18 2014

NOTE: "FAIR" INDICATES FEW OR NO CLOUDS BELOW 12,000 FEET WITH NO
SIGNIFICANT WEATHER AND/OR OBSTRUCTIONS TO VISIBILITY.

* - THESE STATIONS ARE NOT NWS STATIONS...THUS NOT UNDER NWS
QUALITY CONTROL.  THEY ALSO DO NOT REPORT WEATHER SUCH
AS PRECIPITATION OR FOG.

IAZ001>003-012>014-020>022-031>034-043>046-182300-
   NORTHWEST IOWA

CITY           SKY/WX    TMP DP  RH WIND       PRES   REMARKS
CARROLL *      CLOUDY    28  23  80 CALM      30.21R
CHEROKEE *     CLOUDY    28  23  80 CALM      30.20S
DENISON *      CLOUDY    30  25  80 S3        30.19R
LE MARS *      CLOUDY    28  25  86 S6        30.20R WCI  22
ORANGE CITY *  MOCLDY    28  25  86 S5        30.18S WCI  23
SHELDON *      CLOUDY    27  23  86 S8        30.18R WCI  18
SIOUX CITY     CLOUDY    31  23  72 SE6       30.20R WCI  25
SPENCER        CLOUDY    27  20  75 S5        30.20S WCI  22
STORM LAKE *   CLOUDY    28  23  80 SE6       30.20R WCI  22
$$

IAZ055>058-069>071-079>083-090>094-182300-
   SOUTHWEST IOWA

CITY           SKY/WX    TMP DP  RH WIND       PRES   REMARKS
ATLANTIC *     CLOUDY    30  27  86 SE3       30.20S
AUDUBON *      PTCLDY    30  21  69 CALM      30.21R
CLARINDA *     CLOUDY    30  27  86 CALM      30.23S
COUNCIL BLFS * CLOUDY    30  28  93 S5        30.19S WCI  25
CRESTON *      CLOUDY    30  27  86 SE3       30.20S
HARLAN  *      CLOUDY    30  28  93 S5        30.24R WCI  25
LAMONI         CLOUDY    30  25  81 E3        30.20S
RED OAK *      CLOUDY    30  27  86 CALM      30.21S
SHENANDOAH *   CLOUDY    30  28  93 CALM      30.22S
$$

IAZ047>049-059>061-072>074-084-182300-
   CENTRAL IOWA

CITY           SKY/WX    TMP DP  RH WIND       PRES   REMARKS
AMES           CLOUDY    27  18  69 CALM      30.24R
ANKENY *       CLOUDY    28  21  74 E5        30.24R WCI  23
CHARITON *     CLOUDY    28  25  86 E3        30.22S
DES MOINES     CLOUDY    30  21  69 E3        30.24R
GRINNELL*      CLOUDY    27  21  80 CALM      30.24S
KNOXVILLE *    PTCLDY    27  21  80 E5        30.22F WCI  21
MARSHALLTOWN   CLOUDY    24  18  77 CALM      30.24R
PELLA *        MOCLDY    28  23  80 CALM      30.26S
PERRY *        CLOUDY    28  23  80 CALM      30.23S
$$

IAZ004>006-015-016-023>025-035-036-182300-
   NORTH CENTRAL IOWA

CITY           SKY/WX    TMP DP  RH WIND       PRES   REMARKS
ALGONA *       CLOUDY    25  19  80 CALM      30.23S
CLARION *      CLOUDY    25  21  86 CALM      30.23S
ESTHERVILLE    CLOUDY    23  17  78 S5        30.21S WCI  17
FORT DODGE *   CLOUDY    27  19  74 E5        30.23S WCI  21
MASON CITY     CLOUDY    23  17  78 CALM      30.24S
FOREST CITY *  CLOUDY    25  18  74 CALM      30.23R
IOWA FALLS *   CLOUDY    25  19  80 CALM      30.24S
$$

IAZ007>011-017>019-026>030-037>042-050>054-066-182300-
   NORTHEAST IOWA

CITY           SKY/WX    TMP DP  RH WIND       PRES   REMARKS
CEDAR RAPIDS   CLOUDY    24  18  77 NW5       30.24R WCI  18
CHARLES CITY * CLOUDY    23  18  80 E3        30.24F
CLINTON *      MOCLDY    25  16  68 NW3       30.28S
DECORAH *      CLOUDY    23  18  80 N5        30.23S WCI  17
DUBUQUE        PTCLDY    23  17  78 NW3       30.23R
MONTICELLO *   CLOUDY    25  19  80 NW6       30.25R WCI  18
OELWEIN *      CLOUDY    23  18  80 N6        30.25R WCI  16
WATERLOO       CLOUDY    24  17  74 SW3       30.25S
$$

IAZ064-065-067-068-078-182300-
   EAST CENTRAL IOWA

CITY           SKY/WX    TMP DP  RH WIND       PRES   REMARKS
DAVENPORT      MOCLDY    25  17  72 NW5       30.26R WCI  19
IOWA CITY      CLOUDY    26  18  71 W5        30.28R WCI  20
MT. PLEASANT * CLOUDY    27  21  80 N3        30.25S
MUSCATINE *    CLOUDY    30  19  64 N6        30.27S WCI  24
QUAD CITIES    MOCLDY    29  17  61 NW6       30.25S WCI  23
$$

IAZ062-063-075>077-085>089-095>099-182300-
   SOUTHEAST IOWA

CITY           SKY/WX    TMP DP  RH WIND       PRES   REMARKS
BURLINGTON     CLOUDY    28  22  78 NW3       30.25R
FAIRFIELD *    CLOUDY    27  21  80 CALM      30.26R
FORT MADISON * CLOUDY    28  25  86 N3        30.26R
KEOKUK *       CLOUDY    28  25  86 CALM      30.25R
OSKALOOSA *    CLOUDY    27  23  86 CALM      30.25S
CENTERVILLE *  MOCLDY    28  25  86 NE3       30.24S
OTTUMWA        CLOUDY    27  21  78 CALM      30.24S
WASHINGTON *   CLOUDY    28  23  80 N5        30.26R WCI  23
$$

ABBREVIATIONS USED IN REMARKS
   TC - TEMPERATURES IN CELSIUS
  WCI - WIND CHILL INDEX
   HX - HEAT INDEX
  VSB - VISIBILITY
$$




USA.gov is the U.S. government's official web portal to all federal, state and local government web resources and services.